Location: Newark
(42.7133°N, 87.7910°W)
Time: 21:49:24
(UTC+00:00)

Vanguard 1 Rocket - Pass Details

Date: 26 September 2019
Orbit: 650 x 4226 km, 34.3° (Epoch: 13 October)

Event Time Altitude Azimuth Distance (km) Brightness Sun altitude
Rises 01:48:15 0° 270° (W) 8,039 13.4 -23.3°
Reaches altitude 10° 01:54:29 10° 268° (W) 6,615 12.6 -24.3°
Maximum altitude 02:12:50 56° 197° (SSW) 2,579 9.5 -27.4°
Enters shadow 02:16:54 41° 147° (SSE) 2,572 9.2 -28.1°
